Total_Precipitation_Accumulation
0.02 0.11 0.26 0.49 0.54 2.39 3.01 3.43 6.18 4.34 4.43 3.42 3.42 4.24 3.48 1.98 1.92 2.89 2.57 1.51 1.74 0.71 1.16 1.02 0.85 0.41 1.92 0.85 1.15 0.69 0.62 1.34 0.59 2.50 2.21 0.85 0.38 0.51 0.85 0.64 0.78 0.81 0.83 0.76 1.13 1.45 1.63 1.37 1.40 1.88 1.84 1.32 1.35 1.37 1.45 1.60 1.08 0.97 1.12 1.44 0.92 0.98 0.94 0.73 0.97 1.17 1.07 1.13 0.90 1.03 1.21 1.31 1.11 0.85 0.81 1.08 1.00 0.92 1.64 1.24 0.98 1.22 0.99 0.70 1.00 1.08 1.00 1.11 1.18 1.15 1.23 1.08 0.98 1.04 0.76 0.97 0.75
0.08 0.15 0.18 0.94 1.87 4.56 5.84 3.42 3.47 3.14 3.28 3.48 3.02 3.01 2.50 2.20 2.46 1.79 1.87 2.45 0.86 0.81 0.91 0.51 0.70 0.60 0.60 0.24 0.17 0.26 0.32 0.35 0.31 0.23 0.45 0.45 0.62 0.67 0.51 0.60 0.74 0.55 0.57 0.68 0.82 0.90 0.98 1.45 1.16 1.41 1.56 1.10 1.01 1.78 1.77 1.41 1.15 1.30 0.94 0.65 0.69 0.69 0.60 0.87 0.84 1.01 1.03 1.20 1.22 1.29 1.18 0.96 1.05 0.94 1.06 1.22 1.00 1.27 1.42 1.23 1.38 1.22 0.99 0.98 1.21 0.80 1.08 1.09 1.00 1.03 1.17 0.98 1.07 1.12 0.83 1.12 1.27
0.18 0.20 0.69 0.77 2.46 2.29 4.70 2.86 6.56 4.01 4.55 3.83 3.20 4.20 2.84 2.47 2.90 1.62 1.94 1.84 0.62 1.05 0.84 0.81 0.57 0.92 0.43 0.19 0.49 1.18 1.06 0.27 0.18 0.21 0.59 0.74 0.86 1.66 0.65 0.51 0.62 0.56 0.45 0.61 0.75 1.07 1.16 1.51 0.85 1.03 1.08 0.97 1.08 1.24 1.35 1.46 0.81 0.97 0.69 0.55 0.77 0.71 0.65 0.93 1.08 1.12 1.06 1.34 1.33 1.76 1.34 1.23 1.11 1.11 1.15 1.26 1.36 1.24 1.08 1.33 1.68 1.54 1.10 1.01 0.95 1.09 1.38 0.99 1.16 0.99 1.46 1.20 1.45 1.04 0.90 1.11 1.47
0.28 0.26 1.62 1.19 5.80 3.33 5.27 4.52 3.33 4.10 4.35 3.02 2.89 2.93 3.45 2.87 2.08 1.98 1.62 0.60 0.61 1.00 0.25 0.22 0.98 0.37 0.62 0.94 0.54 0.26 0.37 0.66 0.22 0.09 0.59 0.87 0.69 0.44 0.59 0.77 0.71 0.39 0.61 1.03 1.20 0.87 0.99 0.90 0.90 1.50 1.37 0.98 0.93 0.96 1.28 0.95 0.76 0.80 0.61 0.52 0.64 0.61 0.81 0.98 0.91 1.04 1.14 1.07 1.17 1.14 1.44 1.33 1.32 1.10 1.24 1.39 1.48 1.57 1.64 1.40 1.82 1.39 1.25 1.42 1.06 1.65 1.10 1.15 1.31 1.42 1.18 1.09 1.33 1.15 1.18 1.26 1.18
0.40 0.48 0.75 2.41 3.40 6.45 4.14 5.16 4.98 3.59 4.56 4.31 4.04 2.99 3.17 3.17 1.91 1.63 1.57 1.09 0.71 0.51 0.32 0.14 0.15 0.32 0.90 0.70 0.70 1.63 0.87 0.28 0.16 0.14 0.28 0.59 0.39 0.46 0.62 0.34 0.33 1.11 1.00 0.96 1.42 1.13 1.34 0.80 0.77 1.27 1.07 1.02 1.13 1.08 1.26 1.00 0.67 0.68 1.01 1.09 0.87 0.81 0.85 0.84 0.73 0.80 0.98 1.02 1.14 1.12 1.58 1.38 1.57 1.46 1.61 1.66 1.44 1.21 1.76 1.69 1.49 1.58 1.72 1.70 1.48 1.46 1.27 1.33 1.29 1.31 1.44 1.38 1.04 1.09 1.15 1.19 1.16
0.55 0.91 2.01 2.42 7.74 4.13 2.43 4.03 5.09 4.19 4.52 3.94 4.05 3.12 2.03 2.29 2.73 1.18 1.16 0.71 0.73 0.72 0.42 0.31 0.45 0.27 0.29 0.16 0.15 0.55 0.40 0.99 0.49 0.24 0.26 0.84 0.45 0.46 0.36 0.27 0.58 1.21 1.04 0.67 1.00 1.08 1.30 1.09 1.29 1.09 0.86 1.05 0.96 1.01 1.00 0.84 0.73 1.21 1.13 1.48 0.99 1.24 1.32 1.29 0.86 0.89 0.98 0.81 1.06 1.52 1.15 1.30 1.48 1.57 2.07 1.93 1.55 1.83 1.56 1.62 1.55 1.45 1.36 1.75 1.61 1.37 1.32 1.36 1.31 1.12 1.13 1.15 0.96 0.99 1.40 1.26 1.10
1.44 1.81 3.57 3.93 3.56 3.81 5.71 4.66 3.54 3.51 4.01 3.89 3.50 2.84 2.93 2.24 1.83 1.43 0.81 0.47 0.69 0.59 0.28 0.26 0.15 0.20 0.56 0.21 0.25 0.20 0.12 0.24 0.68 0.32 0.36 0.32 0.40 0.25 0.23 0.47 0.80 0.83 0.77 0.79 1.03 1.29 1.45 1.55 1.25 1.31 1.29 0.95 0.97 0.91 1.01 0.72 0.84 0.94 1.08 1.21 0.99 1.23 1.64 1.38 0.81 0.94 0.87 0.91 1.08 1.43 1.22 1.06 1.12 1.63 1.63 1.67 1.55 1.25 1.71 1.52 1.53 1.41 1.25 1.45 1.67 1.47 1.20 1.04 0.97 1.08 0.98 0.99 1.12 0.97 1.20 1.24 1.04
0.47 3.06 4.86 4.36 5.69 3.21 5.54 4.30 4.09 3.93 3.38 4.66 2.95 2.55 2.47 3.13 1.67 1.66 1.27 1.48 0.49 0.69 0.55 0.13 0.22 0.46 0.80 0.12 0.93 0.41 0.18 0.14 0.34 0.14 0.14 0.18 0.15 0.25 0.45 0.39 0.62 0.76 1.14 0.98 0.96 1.13 1.33 1.27 1.22 1.11 0.89 0.76 0.99 0.92 0.97 0.90 1.10 1.04 0.94 1.19 1.16 1.06 1.55 1.35 1.32 1.17 1.04 1.02 1.05 1.17 1.23 1.08 1.42 1.23 1.05 1.74 1.50 1.43 1.47 1.36 1.24 1.08 1.53 1.41 1.47 1.75 1.15 0.99 0.98 1.40 1.39 1.24 0.98 0.90 0.86 1.15 1.38
2.22 1.67 2.86 4.02 6.01 3.89 4.14 4.40 4.03 3.60 3.15 2.98 2.58 3.29 2.99 2.55 1.73 1.62 1.37 0.74 0.40 0.70 0.59 0.21 0.13 1.17 0.48 0.40 0.51 0.51 0.24 0.19 0.28 0.14 0.11 0.12 0.21 0.26 0.56 0.38 0.74 0.67 0.77 0.85 1.02 1.01 1.70 1.11 1.07 1.14 1.10 1.30 0.87 1.23 1.11 1.40 1.50 1.23 1.10 1.23 1.08 1.07 1.38 1.21 1.33 1.35 1.14 1.13 1.17 1.36 1.51 1.17 1.14 1.26 1.16 1.30 1.51 1.52 1.26 1.00 1.24 1.17 1.24 1.45 1.44 1.56 1.49 1.11 1.20 1.29 1.15 1.24 0.97 0.73 1.14 1.00 0.88
2.14 1.15 5.45 4.17 3.14 5.07 3.58 3.61 4.56 5.00 5.55 3.03 3.01 2.84 2.82 2.18 1.99 1.96 1.24 1.02 0.88 0.79 0.54 0.23 0.15 0.88 0.35 0.49 0.48 0.45 0.47 0.17 0.11 0.15 0.09 0.18 0.22 0.28 0.31 0.40 0.37 0.52 0.80 0.69 0.84 1.13 0.98 1.30 0.99 1.36 1.64 1.45 1.26 1.20 1.21 1.12 1.44 1.58 1.20 1.27 1.59 1.25 1.31 1.17 1.46 1.59 1.35 1.17 1.50 1.34 1.20 1.32 1.13 1.01 1.14 1.32 1.27 1.36 1.12 1.15 0.94 1.12 0.98 1.10 1.36 1.53 1.21 1.04 1.34 1.57 1.23 1.03 0.89 0.88 0.89 0.90 0.85
3.43 2.37 3.16 3.99 4.08 3.58 4.30 3.62 4.41 2.90 3.09 2.60 2.91 2.55 3.10 2.00 1.75 2.57 2.09 1.77 0.91 0.48 0.35 0.13 0.31 0.31 0.22 0.60 0.62 0.56 0.50 0.12 0.11 0.17 0.16 0.15 0.18 0.17 0.59 0.38 0.51 0.49 0.68 0.66 1.13 1.33 0.88 1.30 1.28 1.65 1.70 1.22 1.23 1.27 1.30 1.26 1.61 1.38 1.02 1.13 1.68 1.83 1.29 1.57 1.63 1.41 1.37 1.51 1.63 1.31 1.31 1.35 1.56 1.13 1.18 1.45 1.58 1.26 1.16 1.10 0.87 0.93 0.88 1.08 1.32 1.06 1.13 1.07 1.08 1.36 1.10 0.88 0.92 0.85 1.04 0.82 0.70
2.11 2.74 3.35 4.48 4.31 4.08 4.18 4.22 4.17 4.34 3.66 4.23 3.58 3.28 1.94 2.04 1.73 1.84 1.35 1.28 0.56 0.23 0.49 0.24 1.14 0.33 0.31 0.23 0.57 0.86 0.42 0.23 0.16 0.08 0.12 0.19 0.15 0.21 0.28 0.28 0.47 0.70 0.47 0.78 0.83 0.81 1.36 1.73 1.22 1.88 1.74 1.76 1.56 1.30 1.48 1.32 1.47 1.28 1.46 1.24 1.25 1.72 1.62 1.29 1.19 1.53 1.32 1.50 1.43 1.45 1.27 1.33 1.31 1.20 1.34 1.35 1.54 1.19 1.30 1.17 0.96 0.98 0.95 1.25 1.45 0.90 1.04 1.16 1.08 1.21 1.08 0.85 0.79 0.88 1.15 0.74 0.57
1.88 2.39 5.09 4.10 3.81 4.23 3.87 3.99 4.71 3.87 3.62 4.69 4.56 2.30 1.75 1.69 2.79 2.69 1.86 1.65 1.15 0.47 0.50 0.84 0.06 0.33 0.46 0.53 0.50 0.33 0.37 0.25 0.16 0.08 0.10 0.14 0.18 0.16 0.26 0.33 0.41 0.59 0.52 0.70 0.75 1.38 1.07 1.28 1.26 1.90 1.82 2.29 2.05 1.63 1.77 1.85 1.42 1.30 1.47 1.35 1.66 1.42 1.62 1.77 1.44 1.60 1.30 1.50 1.50 1.56 1.29 1.46 1.85 1.16 1.01 1.02 1.07 1.23 1.18 1.22 1.05 0.91 0.97 0.96 0.95 0.90 1.16 0.93 1.00 1.32 0.95 0.79 0.96 0.85 1.17 0.82 0.39
0.94 2.29 3.23 4.81 3.02 4.17 4.79 5.10 4.21 4.24 5.04 3.94 3.81 2.27 2.26 2.40 2.49 2.71 1.42 1.94 0.97 1.71 0.41 0.11 0.22 0.20 0.49 0.26 1.19 0.52 0.41 0.25 0.12 0.13 0.10 0.33 0.32 0.42 0.31 0.27 0.33 0.50 0.59 1.02 1.27 1.02 1.63 1.55 1.73 1.50 1.92 2.24 3.01 2.34 2.43 1.87 1.48 1.74 1.80 1.26 1.44 1.65 1.67 1.68 1.78 1.57 1.53 1.47 1.50 1.50 1.79 1.82 1.73 1.28 1.32 0.82 1.23 1.20 0.89 0.89 0.87 0.88 0.90 0.87 1.00 1.24 0.72 0.97 1.26 1.07 0.91 0.59 0.66 0.60 0.91 0.55 0.47
2.41 1.84 3.80 3.35 4.16 3.09 3.37 4.41 3.38 3.23 6.32 4.16 2.70 3.02 2.84 3.11 2.79 1.88 2.26 1.83 1.31 0.58 0.21 0.08 0.20 0.41 1.10 0.38 0.40 0.25 0.18 0.19 0.09 0.17 0.13 0.34 0.35 0.40 0.20 0.23 0.32 0.38 0.54 1.12 1.06 1.53 1.87 1.87 1.45 1.54 2.13 1.85 2.05 2.46 2.79 2.44 2.14 1.92 1.84 1.81 1.75 1.64 1.37 1.54 1.78 1.80 2.03 1.63 1.72 1.78 2.25 1.95 1.60 1.50 1.02 0.88 0.84 0.86 0.84 0.93 0.89 0.82 0.82 0.56 0.73 0.82 0.87 0.98 0.79 0.75 0.76 0.76 0.66 0.63 0.70 0.56 0.48
1.44 1.92 3.76 4.73 3.79 4.43 2.74 3.23 3.60 3.16 3.91 3.84 2.87 2.32 2.65 1.88 1.74 2.38 1.61 2.29 1.00 0.59 0.26 0.99 0.03 0.99 0.25 0.26 0.08 0.06 0.03 0.08 0.09 0.12 0.12 0.53 0.40 0.36 0.33 0.24 0.39 0.46 1.20 0.92 1.23 1.50 1.58 1.71 1.72 1.53 1.77 1.41 1.97 1.91 2.36 1.89 2.17 1.96 2.28 1.86 2.14 2.19 1.52 1.69 1.52 1.67 1.79 1.93 1.83 1.74 2.09 1.87 1.69 1.01 1.28 0.84 1.11 0.94 0.81 0.99 0.80 0.67 0.46 0.55 0.60 0.65 0.66 0.65 0.88 0.97 0.97 0.68 0.56 0.67 0.54 0.48 0.44
0.28 1.24 2.79 3.91 4.44 3.00 3.01 2.76 2.18 5.73 3.08 2.47 2.30 2.52 2.12 2.33 1.76 2.38 1.57 1.01 0.82 0.53 0.65 0.20 0.23 0.08 0.09 0.04 0.02 0.01 0.03 0.03 0.06 0.14 0.20 0.34 0.54 0.55 0.48 0.46 0.50 0.62 0.82 0.65 0.79 1.32 1.63 1.34 1.36 1.49 1.57 1.45 1.50 2.12 1.89 1.73 1.75 2.10 2.17 2.22 2.08 1.97 1.64 1.69 1.53 1.54 2.03 1.98 1.67 1.97 1.50 1.25 1.13 1.17 1.10 1.09 0.67 0.82 0.48 0.74 0.74 0.53 0.50 0.46 0.53 0.58 0.75 0.89 0.93 0.92 0.88 0.81 0.69 0.72 0.58 0.56 0.67
1.13 2.70 3.85 4.01 3.92 3.89 2.10 2.86 2.25 2.68 3.83 2.26 1.88 2.03 2.29 2.03 1.33 1.62 1.47 1.31 1.55 0.62 0.86 0.14 0.10 0.22 0.05 0.01 0.02 0.00 0.02 0.05 0.08 0.13 0.23 0.22 0.32 0.40 0.44 0.45 0.39 0.57 0.82 0.89 1.12 0.95 0.87 1.23 0.89 1.24 1.53 1.61 1.71 1.23 1.13 1.49 2.00 2.21 2.11 2.74 2.08 1.95 1.65 1.85 1.66 1.51 1.74 1.84 2.17 1.91 1.47 1.15 0.99 1.39 1.03 0.88 0.92 0.73 0.64 0.48 0.50 0.58 0.56 0.31 0.58 0.73 1.08 0.99 0.96 0.94 0.84 0.61 0.49 0.49 0.40 0.67 0.74
0.73 1.59 3.10 4.08 2.88 2.71 1.84 1.98 1.42 3.31 3.40 2.29 2.40 1.93 2.47 2.31 1.91 1.01 1.51 1.33 1.13 0.53 0.81 0.88 0.49 0.17 0.04 0.02 0.01 0.01 0.03 0.06 0.07 0.08 0.11 0.12 0.18 0.11 0.13 0.22 0.37 0.48 0.58 0.80 0.90 0.75 0.70 0.87 0.79 0.88 1.21 1.24 1.15 1.50 1.10 1.50 1.48 1.99 2.07 1.96 2.33 2.38 2.19 1.95 1.53 1.57 1.71 1.45 1.41 1.52 1.86 1.22 0.88 0.90 0.94 0.45 0.69 0.57 0.42 0.40 0.41 0.55 0.37 0.37 0.83 0.66 0.76 0.81 0.88 0.89 0.92 0.51 0.54 0.34 0.76 0.64 0.46
0.58 0.85 2.13 1.77 1.34 2.01 2.03 1.76 1.34 1.52 1.81 2.62 1.80 1.62 2.65 1.92 1.65 1.06 2.01 0.93 0.61 1.09 0.80 0.72 0.71 0.25 0.14 0.07 0.04 0.04 0.06 0.09 0.05 0.06 0.08 0.08 0.12 0.12 0.15 0.14 0.26 0.21 0.29 0.45 0.47 0.74 0.74 0.68 0.62 0.67 0.97 0.94 1.08 1.19 1.42 1.05 1.88 2.08 1.70 2.09 1.79 1.57 1.53 1.47 1.42 1.37 1.67 1.38 1.13 1.28 1.04 1.02 0.96 0.99 0.63 0.44 0.49 0.54 0.66 0.50 0.41 0.40 0.29 0.29 0.50 0.82 0.82 0.65 0.81 0.70 0.29 0.15 0.24 0.66 0.78 0.84 1.34
0.57 0.72 1.81 1.02 0.92 2.22 1.75 1.84 1.67 1.22 1.77 2.13 1.95 1.19 1.81 1.91 2.23 1.79 1.64 1.12 1.53 1.31 0.99 0.70 0.73 0.14 0.07 0.05 0.05 0.04 0.08 0.08 0.07 0.04 0.04 0.09 0.09 0.09 0.08 0.15 0.12 0.21 0.28 0.25 0.31 0.35 0.39 0.49 0.53 0.95 0.64 0.82 0.91 1.38 1.33 1.22 1.43 1.92 1.91 1.63 1.42 1.38 1.06 0.74 0.81 1.01 1.25 1.47 1.36 1.67 0.82 0.87 0.81 0.55 0.53 0.41 0.62 0.54 0.72 0.60 0.70 0.52 0.49 0.43 0.35 0.81 0.93 1.13 0.65 0.68 0.77 0.49 0.71 0.91 0.85 0.92 0.59
0.04 0.47 0.66 0.89 1.07 1.94 1.15 1.30 0.92 0.93 1.54 1.97 1.81 1.90 2.63 1.22 1.75 2.20 3.12 3.84 1.90 2.49 0.50 0.58 0.28 0.20 0.11 0.03 0.04 0.02 0.06 0.09 0.04 0.04 0.08 0.18 0.04 0.11 0.08 0.14 0.12 0.15 0.14 0.25 0.24 0.31 0.37 0.33 0.42 0.43 0.43 0.59 0.70 0.96 0.83 1.04 0.84 1.66 2.14 1.79 1.22 1.23 0.93 0.62 0.71 0.98 1.26 1.44 1.37 1.17 0.93 0.63 0.55 0.42 0.44 0.41 0.42 0.47 0.43 0.56 0.66 0.35 0.38 0.26 0.34 0.79 0.50 0.55 0.78 0.84 0.83 0.70 0.94 1.22 0.56 0.55 0.44
0.50 0.24 0.21 0.25 0.52 0.94 1.24 1.32 0.78 0.99 1.60 1.56 2.28 2.69 1.59 1.98 2.97 2.01 1.97 3.48 2.01 1.10 0.48 0.20 0.11 0.08 0.02 0.01 0.02 0.03 0.03 0.03 0.03 0.03 0.03 0.07 0.11 0.05 0.06 0.10 0.14 0.21 0.17 0.21 0.23 0.23 0.21 0.31 0.31 0.35 0.63 0.61 0.51 0.69 1.00 1.09 1.22 1.87 1.35 1.37 1.15 0.78 1.02 0.83 1.00 0.72 0.77 0.67 1.07 0.78 0.72 0.81 0.56 0.35 0.30 0.30 0.41 0.44 0.27 0.33 0.73 0.50 0.48 0.34 0.56 0.85 0.21 0.41 0.51 0.38 0.22 0.42 0.29 0.28 0.55 0.75 0.73
0.00 0.51 0.14 0.23 0.22 0.64 0.99 1.90 1.58 2.45 2.64 2.56 2.54 1.50 1.93 2.40 2.49 1.77 2.08 1.11 0.96 0.81 0.41 0.47 0.08 0.02 0.00 0.02 0.03 0.03 0.01 0.01 0.03 0.02 0.02 0.04 0.05 0.04 0.03 0.06 0.06 0.11 0.12 0.20 0.19 0.23 0.26 0.28 0.24 0.33 0.44 0.48 0.65 0.76 0.75 0.70 1.04 1.34 1.10 1.10 1.68 1.33 1.45 1.02 0.81 0.63 0.39 0.93 0.59 1.18 0.69 0.37 0.35 0.28 0.27 0.30 0.18 0.26 0.26 0.39 0.21 0.24 0.34 0.44 0.59 0.11 0.35 0.42 0.61 0.25 0.36 0.19 0.49 0.45 0.18 0.72 0.64
0.37 0.80 0.51 0.40 0.23 0.53 0.97 1.75 3.08 2.73 2.80 3.03 2.60 1.88 2.19 2.39 2.52 1.27 2.33 1.26 0.60 0.87 0.47 0.50 0.15 0.03 0.02 0.03 0.02 0.03 0.04 0.22 0.27 0.04 0.02 0.02 0.06 0.08 0.05 0.04 0.05 0.09 0.12 0.08 0.12 0.22 0.24 0.34 0.30 0.25 0.37 0.36 0.39 0.57 0.55 0.72 1.19 1.19 1.46 1.11 1.32 1.19 1.07 1.05 0.88 0.50 0.34 0.72 0.93 0.69 0.67 0.42 0.32 0.23 0.20 0.22 0.11 0.14 0.20 0.17 0.42 0.38 0.25 0.29 0.35 0.44 0.20 0.32 0.50 0.28 0.91 0.70 0.64 0.54 0.84 0.74 0.31
0.08 0.10 0.24 0.48 0.46 0.43 1.32 1.39 1.85 1.95 2.93 2.88 2.51 2.50 2.60 1.87 1.80 2.35 2.41 1.00 0.86 0.69 0.54 0.40 0.16 0.02 0.02 0.02 0.03 0.02 0.02 0.05 0.07 0.03 0.02 0.03 0.05 0.04 0.04 0.07 0.09 0.05 0.08 0.09 0.07 0.13 0.20 0.30 0.34 0.26 0.29 0.46 0.42 0.67 0.61 0.84 1.03 1.21 1.02 0.78 0.76 0.83 0.70 1.06 0.59 0.59 0.64 0.32 0.52 0.78 0.48 0.31 0.23 0.12 0.12 0.12 0.12 0.14 0.22 0.27 0.27 0.27 0.35 0.30 0.41 0.31 0.25 0.32 0.48 0.16 0.25 0.54 0.21 0.28 0.33 0.26 0.38
0.01 0.05 0.12 0.33 0.63 0.75 0.75 1.40 1.31 2.14 3.05 2.75 2.93 2.51 2.36 2.43 1.56 3.15 1.17 1.00 0.77 0.62 0.59 0.56 0.39 0.11 0.05 0.01 0.02 0.03 0.02 0.04 0.02 0.01 0.02 0.03 0.02 0.02 0.04 0.02 0.07 0.04 0.06 0.14 0.12 0.10 0.13 0.21 0.23 0.22 0.26 0.28 0.37 0.48 0.34 0.47 0.84 0.74 0.82 0.73 0.94 0.70 0.84 0.83 0.72 0.79 0.55 0.61 0.42 0.50 0.43 0.23 0.20 0.12 0.16 0.16 0.18 0.08 0.16 0.30 0.21 0.43 0.35 0.31 0.16 0.17 0.34 0.24 0.24 0.22 0.37 0.25 0.23 0.21 0.19 0.20 0.46
0.04 0.26 0.16 0.32 0.82 1.14 1.07 1.23 1.42 2.03 3.24 3.38 2.60 3.07 2.44 2.37 1.48 3.31 1.58 0.78 0.87 0.85 0.68 0.40 1.05 0.68 0.24 0.09 0.04 0.04 0.02 0.03 0.03 0.06 0.02 0.02 0.01 0.01 0.03 0.04 0.06 0.02 0.05 0.06 0.06 0.07 0.09 0.19 0.26 0.38 0.16 0.15 0.19 0.25 0.51 0.36 0.36 0.76 0.72 0.49 0.60 0.47 0.71 0.67 0.54 0.73 0.70 0.46 0.41 0.58 0.36 0.18 0.22 0.24 0.14 0.18 0.13 0.16 0.19 0.27 0.45 0.68 0.72 0.26 0.29 0.36 0.30 0.31 0.19 0.11 0.12 0.19 0.20 0.30 0.25 0.37 0.62
0.32 0.22 0.67 0.62 0.59 1.13 1.27 1.36 2.19 1.70 2.47 3.57 3.68 3.22 2.68 1.62 2.32 1.64 0.85 0.80 1.38 1.11 0.95 1.00 0.40 0.38 0.07 0.04 0.03 0.03 0.04 0.03 0.03 0.04 0.04 0.02 0.01 0.05 0.02 0.01 0.03 0.06 0.05 0.03 0.11 0.10 0.15 0.21 0.12 0.22 0.22 0.13 0.20 0.27 0.37 0.23 0.32 0.50 0.37 0.60 0.76 0.39 0.74 0.56 0.47 0.82 0.33 0.82 0.54 0.38 0.27 0.26 0.10 0.11 0.10 0.14 0.17 0.26 0.27 0.40 0.43 0.39 0.38 0.32 0.36 0.33 0.24 0.27 0.14 0.22 0.22 0.20 0.35 0.33 0.26 0.25 0.75
0.16 0.60 1.02 0.64 0.96 1.41 1.27 1.75 2.09 1.54 2.15 2.21 3.16 3.27 2.73 2.52 1.95 1.30 0.90 1.29 1.24 1.45 1.63 1.01 0.73 0.43 0.42 0.17 0.04 0.05 0.03 0.02 0.02 0.09 0.06 0.02 0.02 0.05 0.06 0.01 0.05 0.05 0.02 0.14 0.08 0.08 0.10 0.08 0.14 0.33 0.14 0.18 0.15 0.36 0.54 0.45 0.56 0.32 0.58 0.30 0.51 0.40 0.46 0.54 0.45 0.26 0.23 0.29 0.33 0.33 0.23 0.13 0.20 0.20 0.18 0.21 0.32 0.30 0.32 0.26 0.60 0.34 0.29 0.30 0.30 0.39 0.30 0.34 0.31 0.20 0.18 0.34 0.16 0.29 0.22 0.49 0.58
0.36 1.00 0.54 1.44 1.05 1.95 0.71 1.37 1.92 2.37 2.12 2.57 1.37 3.27 3.82 2.75 1.65 1.40 1.33 1.37 1.32 1.42 1.33 0.96 1.21 0.92 0.58 0.27 0.08 0.08 0.05 0.06 0.05 0.02 0.03 0.06 0.12 0.07 0.02 0.04 0.03 0.02 0.02 0.04 0.02 0.02 0.08 0.18 0.22 0.27 0.12 0.13 0.15 0.16 0.58 0.39 0.70 0.68 0.87 0.54 0.36 0.40 0.34 0.53 0.56 0.34 0.09 0.17 0.22 0.23 0.22 0.31 0.35 0.20 0.25 0.22 0.21 0.17 0.28 0.40 0.25 0.35 0.27 0.28 0.50 0.25 0.50 0.46 0.31 0.30 0.39 0.52 0.49 0.15 0.30 0.22 0.09
0.29 0.35 0.72 0.52 0.33 1.67 1.09 0.84 0.76 1.73 1.50 1.67 1.19 2.35 2.91 2.46 2.46 1.29 1.10 1.63 2.28 2.03 1.35 1.39 1.06 0.51 0.68 0.85 0.15 0.09 0.15 0.06 0.02 0.09 0.08 0.23 0.11 0.02 0.14 0.09 0.09 0.22 0.35 0.13 0.03 0.03 0.05 0.03 0.10 0.11 0.24 0.23 0.11 0.13 0.40 0.21 0.46 0.60 0.51 0.34 0.77 0.45 0.31 0.46 0.38 0.27 0.12 0.12 0.20 0.15 0.21 0.29 0.30 0.31 0.33 0.24 0.19 0.36 0.30 0.31 0.53 0.58 0.22 0.63 0.41 0.33 0.40 0.30 0.29 0.28 0.28 0.66 0.35 0.22 0.21 0.21 0.44
0.26 0.11 0.27 0.31 0.42 0.99 1.33 0.67 0.95 1.39 0.73 1.55 1.67 2.88 2.30 2.86 2.48 2.11 1.63 1.99 1.88 2.18 1.56 0.98 0.77 0.85 0.63 0.68 0.28 0.12 0.13 0.10 0.22 0.16 0.16 0.12 0.10 0.15 0.19 0.39 0.17 0.32 0.31 0.08 0.05 0.06 0.04 0.04 0.07 0.08 0.30 0.15 0.13 0.18 0.41 0.22 0.37 0.37 0.44 0.29 0.42 0.42 0.29 0.51 0.51 0.34 0.08 0.61 0.64 0.22 0.36 0.24 0.18 0.35 0.36 0.31 0.32 0.45 0.34 0.42 0.37 0.40 0.51 0.52 0.37 0.52 0.43 0.35 0.59 0.45 0.28 0.21 0.19 0.22 0.14 0.17 0.10
0.09 0.03 0.15 0.16 0.36 0.34 1.07 0.78 1.23 1.10 0.81 1.52 1.38 1.87 2.40 1.76 1.54 1.68 1.42 1.48 1.82 2.25 1.78 1.27 0.89 1.14 0.52 0.47 0.24 0.43 0.19 0.45 0.16 0.59 0.54 0.46 0.52 0.20 0.75 0.45 0.72 0.54 0.40 0.27 0.10 0.04 0.04 0.10 0.03 0.04 0.22 0.20 0.33 0.69 0.38 0.29 0.42 0.33 0.23 0.61 0.22 0.65 0.44 0.28 0.51 0.34 0.36 0.34 0.22 0.25 0.28 0.30 0.42 0.30 0.29 0.27 0.37 0.18 0.32 0.54 0.36 0.24 0.25 0.31 0.40 0.44 0.36 0.33 0.26 0.33 0.43 0.24 0.15 0.17 0.19 0.22 0.24
0.04 0.06 0.12 0.37 0.54 0.32 0.88 0.65 0.84 0.68 0.77 0.99 1.01 1.36 2.39 2.08 1.60 1.16 1.05 1.26 1.55 1.56 1.79 1.71 1.11 0.78 0.43 1.00 0.75 0.73 0.72 0.50 0.48 0.56 0.64 1.00 0.92 0.74 0.67 0.77 0.58 0.52 0.42 0.36 0.42 0.17 0.08 0.13 0.06 0.04 0.12 0.51 0.65 0.68 0.61 0.53 0.28 0.37 0.33 0.32 0.54 0.75 0.34 0.34 0.57 0.58 0.35 0.18 0.38 0.30 0.33 0.32 0.31 0.50 0.28 0.28 0.19 0.20 0.25 0.25 0.23 0.31 0.32 0.20 0.32 0.59 0.44 0.50 0.32 0.31 0.33 0.20 0.14 0.24 0.13 0.09 0.20
0.02 0.03 0.19 0.15 0.32 0.87 0.56 0.59 0.25 0.15 0.66 1.31 1.04 1.28 2.02 1.77 1.62 1.43 1.40 1.01 1.29 2.20 1.90 2.02 0.95 1.06 0.54 0.66 1.07 0.50 0.54 0.63 0.61 0.86 0.74 0.88 0.55 0.66 0.79 0.75 0.48 0.41 0.56 0.79 0.99 0.41 0.41 0.40 0.21 0.14 0.21 0.51 0.42 0.91 0.31 0.39 0.31 0.28 0.22 0.25 0.43 0.67 0.27 0.34 0.34 0.31 0.21 0.22 0.26 0.16 0.31 0.46 0.33 0.38 0.19 0.23 0.22 0.24 0.32 0.25 0.29 0.20 0.28 0.35 0.44 0.51 0.29 0.29 0.41 0.30 0.14 0.17 0.23 0.14 0.07 0.10 0.11
0.00 0.00 0.07 0.27 0.44 0.34 0.45 0.55 0.34 0.49 0.79 1.05 1.03 0.92 1.38 1.83 1.31 1.41 1.03 1.21 2.07 1.97 1.32 1.33 1.28 0.81 0.66 0.71 0.72 0.72 0.52 0.64 0.35 1.25 0.81 1.14 0.88 0.87 0.72 0.55 0.54 0.65 0.61 0.71 0.76 0.45 0.41 0.43 0.50 0.30 0.46 0.34 0.34 0.47 0.40 0.37 0.18 0.25 0.25 0.24 0.56 0.29 0.40 0.15 0.15 0.19 0.14 0.13 0.04 0.09 0.21 0.41 0.46 0.51 0.31 0.33 0.18 0.22 0.28 0.50 0.35 0.34 0.24 0.35 0.29 0.36 0.32 0.45 0.23 0.15 0.16 0.14 0.24 0.10 0.14 0.14 0.37
0.01 0.03 0.11 0.49 0.21 0.52 0.52 0.53 0.86 1.21 1.31 1.57 0.65 1.17 1.15 1.62 2.00 1.42 1.45 1.17 1.50 1.95 2.08 1.63 1.00 0.87 0.84 0.83 0.70 1.09 1.00 0.57 0.56 0.51 0.45 0.41 0.38 0.50 0.44 0.43 0.50 0.71 0.62 0.74 0.64 0.77 0.54 0.41 0.52 0.44 0.79 0.43 0.30 0.29 0.24 0.26 0.23 0.13 0.21 0.11 0.20 0.32 0.31 0.44 0.19 0.08 0.08 0.22 0.17 0.13 0.36 0.26 0.36 0.30 0.22 0.31 0.18 0.12 0.25 0.15 0.25 0.29 0.22 0.49 0.26 0.19 0.16 0.09 0.11 0.21 0.14 0.18 0.25 0.14 0.10 0.15 0.28
0.00 0.03 0.28 0.24 0.52 0.53 0.48 0.52 0.50 1.91 1.14 1.86 1.19 1.34 1.16 1.49 1.88 2.25 1.24 0.82 0.81 1.18 1.81 2.29 1.41 1.17 0.81 1.00 0.85 1.82 0.95 1.12 0.90 0.50 0.31 0.25 0.19 0.20 0.39 0.50 0.22 0.26 0.98 1.21 1.07 1.07 1.15 0.59 0.49 0.80 0.39 0.36 0.32 0.23 0.30 0.33 0.30 0.25 0.23 0.25 0.25 0.49 0.45 0.17 0.33 0.14 0.32 0.14 0.14 0.25 0.18 0.39 0.30 0.22 0.25 0.17 0.15 0.18 0.25 0.32 0.33 0.35 0.23 0.19 0.18 0.18 0.17 0.18 0.18 0.16 0.16 0.25 0.20 0.07 0.04 0.04 0.12
0.00 0.03 0.04 0.19 0.14 0.19 0.70 0.69 0.18 0.78 0.49 0.85 1.04 1.11 1.76 2.41 2.18 1.83 2.11 1.05 1.79 1.25 1.51 2.35 2.32 2.12 0.90 0.55 0.98 0.86 0.88 1.15 1.15 0.63 0.42 0.26 0.17 0.19 0.26 0.38 0.32 0.24 0.28 0.75 1.18 0.78 0.29 0.53 0.75 0.48 0.45 0.45 0.35 0.14 0.19 0.19 0.20 0.15 0.20 0.39 0.32 0.47 0.71 0.22 0.66 0.35 0.17 0.35 0.17 0.11 0.15 0.08 0.12 0.20 0.23 0.12 0.17 0.26 0.32 0.34 0.35 0.24 0.19 0.15 0.15 0.30 0.15 0.15 0.13 0.25 0.13 0.18 0.24 0.22 0.08 0.11 0.07
0.00 0.01 0.02 0.05 0.04 0.12 0.03 0.48 0.31 0.75 0.58 0.43 1.18 1.10 2.52 2.31 2.10 1.86 2.10 1.89 1.92 1.66 1.55 1.96 1.90 2.00 1.05 0.96 1.14 1.08 0.97 1.12 0.96 0.72 0.77 0.84 0.47 0.22 0.37 0.62 0.22 0.27 0.36 0.60 0.80 0.55 0.42 0.36 0.54 0.42 0.63 0.29 0.55 0.23 0.30 0.27 0.36 0.47 0.43 0.38 0.38 0.46 0.45 0.17 0.31 0.20 0.18 0.18 0.17 0.14 0.16 0.10 0.17 0.10 0.12 0.15 0.23 0.31 0.22 0.25 0.21 0.16 0.17 0.14 0.14 0.32 0.24 0.25 0.23 0.14 0.16 0.17 0.23 0.27 0.14 0.10 0.07
0.00 0.00 0.00 0.00 0.01 0.23 0.01 0.11 0.30 0.35 0.70 0.58 0.53 0.99 1.35 1.76 1.35 1.00 1.34 1.57 1.53 1.23 0.98 1.11 1.65 1.88 2.13 1.21 0.64 0.80 1.08 1.14 0.82 0.52 0.43 0.34 0.33 0.48 0.70 0.55 0.30 0.29 0.11 0.50 0.97 0.50 0.31 0.33 0.37 0.70 0.64 0.38 0.24 0.53 0.47 0.40 0.34 0.25 0.37 0.47 0.47 0.37 0.36 0.21 0.25 0.17 0.17 0.13 0.39 0.21 0.39 0.19 0.12 0.25 0.13 0.14 0.26 0.24 0.17 0.13 0.12 0.17 0.11 0.16 0.13 0.21 0.12 0.20 0.12 0.26 0.12 0.20 0.19 0.16 0.12 0.07 0.11
0.00 0.00 0.00 0.00 0.00 0.01 0.10 0.55 1.03 0.19 0.33 0.88 0.40 0.52 1.09 0.82 1.41 1.05 0.85 0.90 1.06 1.64 1.23 1.05 1.29 1.64 1.32 1.25 1.51 0.94 1.25 1.60 0.63 0.58 0.43 0.31 0.26 0.30 0.46 1.00 0.45 0.63 0.30 0.34 0.29 0.25 0.21 0.51 0.40 0.16 0.76 0.57 0.33 0.58 0.47 0.26 0.39 0.61 0.40 0.44 0.43 0.44 0.24 0.35 0.29 0.31 0.24 0.26 0.28 0.24 0.20 0.23 0.07 0.14 0.09 0.06 0.07 0.11 0.15 0.13 0.09 0.10 0.14 0.17 0.15 0.17 0.21 0.23 0.19 0.23 0.12 0.10 0.10 0.10 0.07 0.05 0.04
0.00 0.00 0.00 0.01 0.00 0.05 0.14 0.14 0.17 0.10 0.01 0.51 0.25 0.23 0.39 0.67 0.72 0.50 0.60 0.57 0.60 0.95 1.04 1.22 1.21 1.40 1.40 1.17 0.76 0.70 0.62 0.58 0.56 0.54 0.54 0.18 0.27 0.41 1.00 0.68 0.78 0.86 0.51 0.26 0.23 0.29 0.36 0.82 0.29 0.12 0.16 0.55 0.41 0.26 0.19 0.49 0.22 0.34 0.35 0.56 0.38 0.41 0.40 0.53 0.67 0.62 0.32 0.36 0.40 0.18 0.18 0.20 0.08 0.06 0.10 0.04 0.10 0.06 0.10 0.10 0.11 0.11 0.06 0.12 0.14 0.12 0.19 0.19 0.32 0.22 0.09 0.14 0.11 0.07 0.08 0.06 0.10
0.01 0.00 0.01 0.00 0.00 0.00 0.00 0.01 0.04 0.03 0.19 0.46 0.36 0.29 0.46 0.26 0.47 0.49 0.44 0.88 0.78 0.55 0.78 0.52 1.02 0.87 1.09 1.01 0.59 0.82 0.39 0.52 0.79 0.54 0.53 0.23 0.47 0.52 0.51 0.50 0.81 1.23 1.24 0.84 0.33 0.32 0.42 0.60 0.51 0.35 0.30 0.64 0.55 0.27 0.34 0.22 0.33 0.39 0.27 0.24 0.44 0.42 0.71 0.39 0.59 0.50 0.38 0.39 0.45 0.27 0.18 0.14 0.10 0.10 0.09 0.08 0.05 0.05 0.07 0.05 0.09 0.08 0.09 0.09 0.12 0.15 0.09 0.14 0.15 0.19 0.15 0.10 0.07 0.07 0.13 0.05 0.08
0.00 0.00 0.00 0.02 0.00 0.00 0.06 0.00 0.04 0.30 0.04 0.24 0.35 0.13 0.32 0.50 0.58 0.72 0.79 0.57 0.52 0.78 0.76 0.64 0.66 0.97 0.92 1.02 0.64 0.55 0.53 0.62 0.51 0.63 0.70 0.58 0.40 0.64 0.57 0.55 1.12 1.37 0.74 0.21 0.50 0.60 0.92 0.72 0.55 0.55 1.64 1.06 0.45 0.38 0.27 0.30 0.35 0.55 0.39 0.25 0.33 0.40 0.54 0.75 0.43 0.68 0.80 0.56 0.32 0.26 0.30 0.35 0.16 0.18 0.17 0.05 0.06 0.03 0.03 0.05 0.05 0.06 0.09 0.08 0.06 0.17 0.15 0.20 0.12 0.10 0.06 0.09 0.13 0.18 0.09 0.06 0.06
0.00 0.00 0.02 0.06 0.00 0.02 0.01 0.01 0.11 0.11 0.12 0.15 0.06 0.07 0.05 0.49 0.62 0.93 1.14 0.71 0.30 0.44 0.65 0.79 1.00 0.96 0.87 0.62 1.08 0.41 0.46 0.52 0.64 0.58 0.77 0.94 0.71 0.98 0.90 0.96 1.08 1.30 1.00 1.07 0.56 0.48 0.60 0.73 0.32 1.50 1.63 0.97 0.63 0.37 0.23 0.47 0.42 0.49 0.67 0.59 0.42 0.50 0.63 0.77 0.71 0.44 1.16 0.59 0.43 0.44 0.31 0.30 0.16 0.17 0.19 0.11 0.10 0.03 0.02 0.01 0.06 0.06 0.09 0.15 0.07 0.14 0.14 0.09 0.09 0.06 0.18 0.14 0.09 0.10 0.06 0.07 0.03
0.00 0.00 0.03 0.01 0.05 0.08 0.59 0.78 0.56 0.19 0.10 0.05 0.06 0.01 0.02 0.39 0.84 0.45 0.46 0.40 0.45 0.41 0.28 0.44 0.58 0.58 0.54 0.84 1.46 0.39 0.39 0.47 0.47 0.51 1.04 0.98 1.11 1.18 0.65 1.27 1.11 1.49 1.66 1.07 0.66 0.56 0.63 0.71 0.59 1.30 1.23 0.93 0.62 0.41 0.28 0.31 0.27 0.30 0.49 0.57 0.46 0.67 0.76 0.77 1.24 0.89 0.59 0.54 0.35 0.49 0.67 0.71 0.40 0.13 0.18 0.17 0.18 0.09 0.07 0.05 0.04 0.08 0.09 0.12 0.08 0.10 0.13 0.09 0.16 0.08 0.09 0.09 0.08 0.09 0.06 0.11 0.05
0.00 0.00 0.02 0.07 0.53 0.30 0.44 0.42 0.30 0.20 0.15 0.15 0.01 0.02 0.26 0.13 0.41 0.56 0.39 0.37 0.49 0.52 0.43 0.29 0.30 0.31 0.22 0.46 0.56 0.39 0.29 0.29 0.25 0.22 0.58 0.73 0.78 0.68 0.42 0.57 0.81 1.02 0.57 0.60 0.67 0.78 0.55 0.89 0.95 0.91 1.11 1.18 0.50 0.41 0.40 0.33 0.28 0.31 0.83 0.65 0.69 0.80 1.01 0.71 1.17 0.74 0.58 0.60 0.42 0.62 0.60 0.37 0.17 0.13 0.10 0.15 0.08 0.09 0.06 0.06 0.05 0.10 0.08 0.07 0.08 0.17 0.26 0.09 0.10 0.18 0.14 0.04 0.09 0.08 0.10 0.07 0.06
0.01 0.02 0.04 0.04 0.09 0.46 0.06 0.10 0.06 0.06 0.06 0.03 0.07 0.04 0.09 0.31 0.45 0.42 0.42 0.30 0.39 0.37 0.32 0.22 0.34 0.20 0.17 0.32 0.67 0.65 0.44 0.35 0.30 0.39 0.66 0.58 0.67 0.61 0.52 0.57 0.60 0.77 1.22 0.97 0.90 0.96 1.00 1.10 0.74 0.66 0.82 1.34 0.70 0.63 0.39 0.32 0.39 0.54 0.57 0.91 0.74 1.03 0.93 1.25 1.10 0.57 0.36 0.51 0.38 0.47 0.37 0.24 0.21 0.19 0.10 0.09 0.12 0.11 0.06 0.08 0.06 0.07 0.07 0.07 0.10 0.29 0.20 0.17 0.09 0.20 0.09 0.08 0.11 0.07 0.06 0.05 0.09
0.03 0.04 0.01 0.01 0.02 0.07 0.09 0.07 0.12 0.12 0.08 0.05 0.02 0.08 0.41 0.23 2.04 0.52 0.24 0.35 0.60 0.62 0.60 0.24 0.12 0.23 0.09 0.16 0.16 0.38 0.69 0.87 0.46 0.36 0.66 0.57 0.53 0.96 1.20 0.81 0.97 0.74 1.06 1.12 1.34 1.30 0.90 0.92 0.80 0.56 0.44 0.87 0.71 0.54 0.78 0.67 0.30 1.33 0.93 0.74 0.62 1.05 0.72 1.01 0.89 0.69 0.73 1.00 0.81 0.28 0.42 0.32 0.24 0.12 0.08 0.12 0.19 0.18 0.09 0.13 0.19 0.16 0.10 0.14 0.15 0.15 0.14 0.06 0.15 0.13 0.07 0.10 0.28 0.09 0.07 0.08 0.10
0.00 0.01 0.00 0.02 0.01 0.00 0.07 0.09 0.04 0.10 0.20 0.11 0.25 0.26 0.41 0.80 0.27 0.61 0.27 0.15 0.37 0.42 0.78 0.48 0.21 0.23 0.23 0.16 0.11 0.11 0.17 0.84 0.86 0.45 0.74 0.73 1.03 0.90 1.21 1.05 0.55 0.69 0.63 0.56 0.91 0.73 0.67 0.78 0.99 0.69 0.44 0.57 0.40 0.46 0.42 0.61 0.68 0.57 0.91 0.88 0.56 1.08 1.15 1.16 0.93 0.79 0.84 0.65 0.68 0.55 0.32 0.43 0.17 0.21 0.13 0.05 0.05 0.05 0.12 0.09 0.09 0.06 0.08 0.13 0.36 0.24 0.19 0.08 0.17 0.14 0.13 0.09 0.20 0.13 0.05 0.07 0.06
0.13 0.02 0.03 0.03 0.00 0.00 0.01 0.03 0.01 0.06 0.08 0.11 0.08 0.08 0.26 0.23 0.42 0.33 0.90 0.57 0.47 0.32 0.47 0.68 0.41 0.57 0.49 0.22 0.70 0.35 0.31 0.64 1.66 1.30 1.31 1.40 1.83 1.22 1.05 1.10 0.86 0.92 0.58 0.39 0.71 0.82 1.07 1.17 1.13 0.93 0.98 1.13 0.55 0.69 0.52 0.76 0.76 0.75 0.54 0.59 0.71 0.56 0.72 0.77 0.68 0.82 0.75 0.71 0.41 0.57 0.39 0.32 0.40 0.41 0.30 0.11 0.08 0.05 0.09 0.10 0.08 0.08 0.05 0.05 0.10 0.13 0.07 0.17 0.15 0.13 0.14 0.12 0.16 0.06 0.08 0.07 0.04
0.01 0.03 0.14 0.01 0.00 0.00 0.01 0.11 0.14 0.09 0.14 0.27 0.06 0.39 0.58 0.27 1.23 0.29 0.53 0.79 0.81 0.45 1.07 0.83 0.43 0.56 0.69 0.73 0.19 0.28 0.63 0.65 1.45 1.71 2.69 2.71 2.65 1.77 1.36 1.15 0.90 1.00 0.96 0.82 0.73 0.77 0.80 0.90 1.25 1.36 1.09 0.60 0.97 0.92 0.67 0.68 0.74 0.68 0.61 0.48 0.56 0.57 0.59 0.93 0.73 0.77 0.97 1.00 0.76 0.31 0.40 0.37 0.27 0.30 0.12 0.19 0.15 0.10 0.15 0.08 0.14 0.11 0.10 0.16 0.16 0.09 0.09 0.09 0.20 0.11 0.12 0.12 0.12 0.06 0.12 0.17 0.10
0.00 0.01 0.01 0.02 0.22 0.08 0.04 0.00 0.08 0.13 0.15 0.24 0.08 0.21 0.30 0.25 0.67 0.52 0.42 0.49 0.41 0.67 0.40 0.58 0.49 0.55 0.79 0.87 1.14 0.92 0.82 0.62 0.64 1.19 1.91 1.71 1.76 2.63 2.09 1.59 0.97 1.12 1.69 1.80 1.17 0.98 0.96 1.32 1.61 1.98 1.84 1.44 1.50 1.98 1.25 1.11 1.00 0.73 0.63 0.52 0.54 0.60 0.43 0.68 0.79 1.10 0.88 0.51 0.43 0.31 0.24 0.20 0.19 0.15 0.13 0.13 0.10 0.18 0.24 0.12 0.16 0.49 0.24 0.08 0.12 0.09 0.08 0.09 0.20 0.21 0.10 0.21 0.14 0.12 0.13 0.12 0.06
0.00 0.00 0.04 0.00 0.01 0.05 0.21 0.09 0.32 0.02 0.22 0.04 0.44 0.42 0.75 0.36 0.71 0.33 0.86 0.48 0.60 0.34 0.31 0.45 0.42 0.63 0.45 0.87 0.73 0.59 0.50 0.56 0.93 1.50 2.15 2.16 1.89 2.04 1.80 1.54 1.40 1.77 1.98 0.95 0.99 1.51 0.96 1.52 1.72 1.70 2.14 1.92 2.31 2.00 1.83 1.23 0.85 0.80 0.39 0.65 0.95 0.90 0.80 1.02 1.08 1.00 0.80 0.45 0.31 0.50 0.38 0.29 0.27 0.21 0.11 0.09 0.10 0.18 0.26 0.27 0.29 0.21 0.17 0.21 0.32 0.26 0.40 0.20 0.15 0.17 0.22 0.16 0.27 0.12 0.12 0.08 0.06
0.04 0.01 0.03 0.03 0.01 0.06 0.03 0.04 0.04 0.15 0.24 0.12 0.28 0.63 0.94 0.88 1.29 1.10 0.98 0.92 0.98 0.90 0.45 0.58 0.37 0.49 0.52 0.66 0.90 0.49 0.34 0.40 0.31 0.84 1.34 1.51 1.56 1.64 1.73 1.11 1.16 1.59 1.99 1.99 2.08 0.99 1.11 1.37 1.43 1.73 1.57 1.04 1.69 1.85 1.81 1.50 1.58 1.16 0.80 0.61 0.82 1.17 0.95 0.90 0.92 0.61 0.77 0.72 0.65 0.43 0.35 0.44 0.86 0.31 0.22 0.19 0.16 0.18 0.24 0.42 0.23 0.20 0.13 0.29 0.58 0.34 0.25 0.23 0.39 0.42 0.13 0.07 0.15 0.39 0.29 0.18 0.11
0.06 0.12 0.25 0.06 0.10 0.15 0.08 0.32 0.01 0.03 0.03 0.03 0.08 0.38 0.69 0.67 0.37 0.79 0.66 0.90 0.93 0.46 0.42 0.43 0.45 0.37 0.55 0.60 0.87 0.76 0.50 0.29 0.21 0.26 0.36 0.83 0.97 1.18 1.07 1.50 1.33 1.84 1.45 1.99 1.21 1.09 1.46 1.29 1.33 1.30 1.58 1.73 1.88 1.39 1.86 2.88 2.09 2.20 1.69 1.09 1.07 1.28 1.60 1.12 1.16 1.08 0.89 0.78 0.64 0.49 0.43 0.52 0.33 0.61 0.30 0.24 0.19 0.12 0.27 0.28 0.31 0.22 0.22 0.29 0.20 0.50 0.58 0.34 0.36 0.20 0.25 0.16 0.17 0.18 0.17 0.08 0.08